Location: *
(31.2983°S, 151.4094°E)
Time: 16:15:15
(UTC+00:00)

OAO 3 Rocket - Pass Details

Date: 25 August 2019
Orbit: 630 x 682 km, 35.0° (Epoch: 16 September)

Event Time Altitude Azimuth Distance (km) Brightness Sun altitude
Exits shadow 18:16:35 67° 83° (E) 693 3.4 -26.8°
Drops below altitude 10° 18:20:45 10° 106° (ESE) 2,037 6.7 -25.9°
Sets 18:23:07 0° 107° (ESE) 2,956 7.8 -25.4°
